Track STARLINK-4072 now! 10-day predictions STARLINK-4072 is classified as:
1 52694U 22053AQ 22180.58334491 .00072179 00000-0 51561-3 0 9995 2 52694 53.2155 89.2215 0001950 18.5552 356.7493 15.73138985 1308